| time (UTC) | temp F | wind direction | speed MPH | gust MPH | rain 1hr in | rain 24hr in | rain mn in | humidity % | barometer mb |
| 20260510132518 | 64 | 44 | 5.0 | 11.0 | 0.00 | 0.00 | 0.00 | 66 | 1017.1 |
| 20260510131517 | 64 | 46 | 6.0 | 12.0 | 0.00 | 0.00 | 0.00 | 66 | 1016.8 |
| 20260510130535 | 63 | 56 | 5.0 | 9.0 | 0.00 | 0.00 | 0.00 | 67 | 1016.8 |
| 20260510125533 | 62 | 53 | 5.0 | 9.0 | 0.00 | 0.00 | 0.00 | 70 | 1016.7 |
| 20260510124531 | 61 | 49 | 4.0 | 9.0 | 0.00 | 0.00 | 0.00 | 72 | 1016.6 |
| 20260510123529 | 61 | 44 | 6.0 | 11.0 | 0.00 | 0.00 | 0.00 | 73 | 1016.3 |
| 20260510122527 | 60 | 68 | 4.0 | 9.0 | 0.00 | 0.00 | 0.00 | 75 | 1016.1 |
| 20260510121525 | 60 | 43 | 4.0 | 9.0 | 0.00 | 0.00 | 0.00 | 76 | 1016.0 |
| 20260510120523 | 60 | 71 | 4.0 | 9.0 | 0.00 | 0.00 | 0.00 | 76 | 1015.7 |
| 20260510115522 | 60 | 43 | 4.0 | 8.0 | 0.00 | 0.00 | 0.00 | 76 | 1015.8 |
| 20260510114520 | 60 | 52 | 5.0 | 7.0 | 0.00 | 0.00 | 0.00 | 75 | 1015.7 |
| 20260510113518 | 60 | 44 | 4.0 | 8.0 | 0.00 | 0.00 | 0.00 | 75 | 1015.2 |
| 20260510112516 | 60 | 74 | 4.0 | 6.0 | 0.00 | 0.00 | 0.00 | 74 | 1015.0 |
| 20260510111534 | 60 | 66 | 4.0 | 8.0 | 0.00 | 0.00 | 0.00 | 73 | 1014.9 |
| 20260510110532 | 60 | 69 | 3.0 | 6.0 | 0.00 | 0.00 | 0.00 | 72 | 1014.8 |
| 20260510105530 | 60 | 83 | 3.0 | 5.0 | 0.00 | 0.00 | 0.00 | 72 | 1014.7 |
| 20260510104528 | 58 | 69 | 4.0 | 6.0 | 0.00 | 0.00 | 0.00 | 76 | 1014.7 |
| 20260510103546 | 57 | 24 | 5.0 | 6.0 | 0.00 | 0.00 | 0.00 | 81 | 1014.8 |
| 20260510102525 | 57 | 60 | 2.0 | 4.0 | 0.00 | 0.00 | 0.00 | 82 | 1014.8 |
| 20260510101523 | 57 | 62 | 1.0 | 3.0 | 0.00 | 0.00 | 0.00 | 82 | 1014.6 |
| 20260510100521 | 58 | 72 | 2.0 | 3.0 | 0.00 | 0.00 | 0.00 | 82 | 1014.2 |
| 20260510095519 | 57 | 80 | 2.0 | 2.0 | 0.00 | 0.00 | 0.00 | 82 | 1014.2 |
| 20260510094537 | 57 | 79 | 2.0 | 2.0 | 0.00 | 0.00 | 0.00 | 81 | 1014.2 |
| 20260510093516 | 58 | 91 | 2.0 | 3.0 | 0.00 | 0.00 | 0.00 | 80 | 1014.2 |
| 20260510092534 | 58 | 54 | 2.0 | 3.0 | 0.00 | 0.00 | 0.00 | 79 | 1013.9 |
| 20260510091532 | 58 | 95 | 2.0 | 2.0 | 0.00 | 0.00 | 0.00 | 78 | 1013.9 |
| 20260510090530 | 59 | 75 | 2.0 | 3.0 | 0.00 | 0.00 | 0.00 | 77 | 1013.8 |
| 20260510085528 | 59 | 71 | 1.0 | 2.0 | 0.00 | 0.00 | 0.00 | 75 | 1013.8 |
| 20260510084526 | 60 | 53 | 2.0 | 3.0 | 0.00 | 0.00 | 0.00 | 76 | 1013.6 |
| 20260510083525 | 60 | 57 | 3.0 | 4.0 | 0.00 | 0.00 | 0.00 | 75 | 1013.4 |
| 20260510082523 | 59 | 71 | 2.0 | 3.0 | 0.00 | 0.00 | 0.00 | 76 | 1013.2 |
| 20260510081541 | 60 | 92 | 2.0 | 2.0 | 0.00 | 0.00 | 0.00 | 75 | 1013.3 |
| 20260510080519 | 60 | 53 | 2.0 | 3.0 | 0.00 | 0.00 | 0.00 | 74 | 1013.9 |
| 20260510075517 | 59 | 61 | 2.0 | 3.0 | 0.00 | 0.00 | 0.00 | 75 | 1013.8 |
| 20260510074535 | 60 | 91 | 2.0 | 2.0 | 0.00 | 0.00 | 0.00 | 73 | 1013.6 |
| 20260510073533 | 59 | 103 | 2.0 | 3.0 | 0.00 | 0.00 | 0.00 | 75 | 1013.5 |
| 20260510072531 | 59 | 64 | 3.0 | 4.0 | 0.00 | 0.00 | 0.00 | 74 | 1013.3 |
| 20260510071549 | 60 | 73 | 1.0 | 2.0 | 0.00 | 0.00 | 0.00 | 73 | 1013.3 |
| 20260510070528 | 60 | 87 | 1.0 | 3.0 | 0.00 | 0.00 | 0.00 | 72 | 1013.3 |
| 20260510065526 | 61 | 92 | 2.0 | 2.0 | 0.00 | 0.00 | 0.00 | 68 | 1013.4 |
| 20260510064524 | 61 | 72 | 1.0 | 2.0 | 0.00 | 0.00 | 0.00 | 67 | 1013.3 |
| 20260510063522 | 62 | 59 | 2.0 | 3.0 | 0.00 | 0.00 | 0.00 | 67 | 1013.3 |
| 20260510062520 | 62 | 55 | 2.0 | 3.0 | 0.00 | 0.00 | 0.00 | 67 | 1013.4 |
| 20260510061518 | 62 | 53 | 2.0 | 3.0 | 0.00 | 0.00 | 0.00 | 66 | 1013.5 |
| 20260510060516 | 62 | 68 | 2.0 | 6.0 | 0.00 | 0.00 | 0.00 | 67 | 1013.5 |
| 20260510055534 | 60 | 59 | 3.0 | 4.0 | 0.00 | 0.00 | 0.00 | 71 | 1013.1 |
| 20260510054533 | 61 | 66 | 2.0 | 3.0 | 0.00 | 0.00 | 0.00 | 71 | 1013.0 |
| 20260510053531 | 61 | 74 | 2.0 | 2.0 | 0.00 | 0.00 | 0.00 | 72 | 1013.1 |
| 20260510052549 | 61 | 92 | 1.0 | 2.0 | 0.00 | 0.00 | 0.00 | 72 | 1013.2 |
| 20260510051527 | 61 | 64 | 1.0 | 2.0 | 0.00 | 0.00 | 0.00 | 71 | 1013.1 |
| 20260510050525 | 62 | 60 | 1.0 | 3.0 | 0.00 | 0.00 | 0.00 | 70 | 1012.8 |
| 20260510045523 | 62 | 119 | 2.0 | 4.0 | 0.00 | 0.00 | 0.00 | 70 | 1012.8 |
| 20260510044522 | 62 | 63 | 1.0 | 2.0 | 0.00 | 0.00 | 0.00 | 70 | 1012.8 |
| 20260510043520 | 62 | 52 | 1.0 | 2.0 | 0.00 | 0.00 | 0.00 | 71 | 1012.8 |
| 20260510042518 | 62 | 55 | 1.0 | 2.0 | 0.00 | 0.00 | 0.00 | 73 | 1012.8 |
| 20260510041516 | 62 | 73 | 1.0 | 2.0 | 0.00 | 0.00 | 0.00 | 71 | 1012.8 |
| 20260510040554 | 62 | 53 | 2.0 | 2.0 | 0.00 | 0.00 | 0.00 | 70 | 1012.4 |
| 20260510035532 | 63 | 56 | 1.0 | 2.0 | 0.00 | 0.00 | 0.00 | 67 | 1012.4 |
| 20260510034551 | 62 | 118 | 3.0 | 4.0 | 0.00 | 0.00 | 0.00 | 64 | 1012.4 |
| 20260510033528 | 63 | 95 | 1.0 | 3.0 | 0.00 | 0.00 | 0.00 | 65 | 1012.5 |
| 20260510032527 | 64 | 75 | 1.0 | 2.0 | 0.00 | 0.00 | 0.00 | 59 | 1012.3 |
| 20260510031525 | 64 | 64 | 1.0 | 2.0 | 0.00 | 0.00 | 0.00 | 57 | 1012.2 |
| 20260510030523 | 65 | 57 | 1.0 | 2.0 | 0.00 | 0.00 | 0.00 | 56 | 1012.1 |
| 20260510025521 | 65 | 57 | 1.0 | 2.0 | 0.00 | 0.00 | 0.00 | 56 | 1012.0 |
| 20260510024519 | 66 | 64 | 1.0 | 2.0 | 0.00 | 0.00 | 0.00 | 55 | 1011.7 |
| 20260510023517 | 66 | 60 | 2.0 | 3.0 | 0.00 | 0.00 | 0.00 | 53 | 1011.3 |
| 20260510022515 | 66 | 58 | 2.0 | 2.0 | 0.00 | 0.00 | 0.00 | 53 | 1011.1 |
| 20260510021554 | 67 | 61 | 1.0 | 2.0 | 0.00 | 0.00 | 0.00 | 52 | 1011.1 |
| 20260510020532 | 68 | 45 | 2.0 | 3.0 | 0.00 | 0.00 | 0.00 | 51 | 1010.9 |
| 20260510015550 | 69 | 65 | 2.0 | 2.0 | 0.00 | 0.00 | 0.00 | 50 | 1010.7 |
| 20260510014608 | 70 | 51 | 1.0 | 2.0 | 0.00 | 0.00 | 0.00 | 49 | 1010.5 |
| 20260510013527 | 71 | 60 | 1.0 | 2.0 | 0.00 | 0.00 | 0.00 | 46 | 1010.3 |
| 20260510012525 | 72 | 64 | 1.0 | 2.0 | 0.00 | 0.00 | 0.00 | 44 | 1010.3 |
| 20260510011522 | 73 | 63 | 1.0 | 2.0 | 0.00 | 0.00 | 0.00 | 42 | 1010.2 |
| 20260510010521 | 74 | 71 | 0.0 | 1.0 | 0.00 | 0.00 | 0.00 | 41 | 1010.1 |
| 20260510005519 | 75 | 64 | 1.0 | 2.0 | 0.00 | 0.00 | 0.00 | 41 | 1009.9 |
| 20260510004537 | 77 | 300 | 0.0 | 2.0 | 0.00 | 0.00 | 0.00 | 38 | 1009.8 |
| 20260510003515 | 77 | 271 | 1.0 | 3.0 | 0.00 | 0.00 | 0.00 | 35 | 1009.8 |
| 20260510002533 | 78 | 257 | 2.0 | 4.0 | 0.00 | 0.00 | 0.00 | 35 | 1009.7 |
| 20260510001532 | 78 | 262 | 2.0 | 4.0 | 0.00 | 0.00 | 0.00 | 35 | 1009.8 |
| 20260510000550 | 78 | 254 | 2.0 | 5.0 | 0.00 | 0.00 | 0.00 | 34 | 1009.9 |
| 20260509235548 | 79 | 270 | 2.0 | 5.0 | 0.00 | 0.00 | 0.00 | 33 | 1009.8 |
| 20260509234546 | 79 | 265 | 2.0 | 5.0 | 0.00 | 0.00 | 0.00 | 34 | 1009.7 |
| 20260509233524 | 79 | 248 | 3.0 | 6.0 | 0.00 | 0.00 | 0.00 | 33 | 1009.8 |
| 20260509232522 | 79 | 262 | 3.0 | 6.0 | 0.00 | 0.01 | 0.00 | 33 | 1009.8 |
| 20260509231540 | 80 | 265 | 3.0 | 5.0 | 0.00 | 0.02 | 0.00 | 32 | 1009.8 |
| 20260509230519 | 80 | 267 | 3.0 | 5.0 | 0.00 | 0.02 | 0.00 | 33 | 1009.7 |
| 20260509225517 | 81 | 334 | 3.0 | 5.0 | 0.00 | 0.02 | 0.00 | 30 | 1009.7 |
| 20260509224535 | 82 | 345 | 2.0 | 3.0 | 0.00 | 0.02 | 0.00 | 28 | 1009.8 |
| 20260509223533 | 84 | 279 | 2.0 | 6.0 | 0.00 | 0.02 | 0.00 | 28 | 1009.7 |
| 20260509222531 | 84 | 281 | 2.0 | 4.0 | 0.00 | 0.02 | 0.00 | 30 | 1009.7 |
| 20260509221529 | 84 | 292 | 2.0 | 4.0 | 0.00 | 0.02 | 0.00 | 30 | 1009.8 |
| 20260509220527 | 83 | 248 | 3.0 | 6.0 | 0.00 | 0.02 | 0.00 | 32 | 1009.9 |
| 20260509215525 | 84 | 248 | 4.0 | 6.0 | 0.00 | 0.02 | 0.00 | 31 | 1009.7 |
| 20260509214524 | 83 | 13 | 2.0 | 5.0 | 0.00 | 0.02 | 0.00 | 30 | 1009.8 |
| 20260509213522 | 84 | 353 | 2.0 | 5.0 | 0.00 | 0.02 | 0.00 | 30 | 1010.0 |
| 20260509212520 | 85 | 308 | 2.0 | 4.0 | 0.00 | 0.02 | 0.00 | 30 | 1009.8 |
| 20260509211518 | 85 | 294 | 2.0 | 4.0 | 0.00 | 0.02 | 0.00 | 30 | 1009.8 |
| 20260509210536 | 84 | 44 | 3.0 | 8.0 | 0.00 | 0.02 | 0.00 | 30 | 1009.9 |
| 20260509205554 | 84 | 297 | 3.0 | 6.0 | 0.00 | 0.02 | 0.00 | 31 | 1010.1 |
| 20260509204532 | 85 | 357 | 3.0 | 9.0 | 0.00 | 0.02 | 0.00 | 30 | 1010.1 |
| 20260509203531 | 85 | 287 | 2.0 | 5.0 | 0.00 | 0.02 | 0.00 | 29 | 1010.0 |
| 20260509202529 | 84 | 254 | 2.0 | 5.0 | 0.00 | 0.02 | 0.00 | 30 | 1010.3 |
| 20260509201527 | 84 | 4 | 3.0 | 6.0 | 0.00 | 0.02 | 0.00 | 30 | 1010.5 |
| 20260509200525 | 83 | 2 | 3.0 | 6.0 | 0.00 | 0.02 | 0.00 | 30 | 1010.6 |
| 20260509195523 | 84 | 271 | 4.0 | 7.0 | 0.00 | 0.02 | 0.00 | 30 | 1010.7 |
| 20260509194521 | 84 | 10 | 3.0 | 6.0 | 0.00 | 0.02 | 0.00 | 29 | 1010.7 |
| 20260509193519 | 83 | 265 | 4.0 | 9.0 | 0.00 | 0.02 | 0.00 | 29 | 1010.8 |
| 20260509192518 | 84 | 276 | 2.0 | 5.0 | 0.00 | 0.02 | 0.00 | 32 | 1010.7 |
| 20260509191536 | 83 | 15 | 3.0 | 8.0 | 0.00 | 0.02 | 0.00 | 31 | 1010.7 |
| 20260509190534 | 83 | 317 | 2.0 | 6.0 | 0.00 | 0.02 | 0.00 | 32 | 1010.8 |
| 20260509185532 | 83 | 318 | 3.0 | 7.0 | 0.00 | 0.02 | 0.00 | 33 | 1010.9 |
| 20260509184550 | 83 | 26 | 4.0 | 8.0 | 0.00 | 0.02 | 0.00 | 30 | 1010.9 |
| 20260509183528 | 83 | 254 | 3.0 | 7.0 | 0.00 | 0.02 | 0.00 | 34 | 1010.8 |
| 20260509182526 | 82 | 286 | 3.0 | 6.0 | 0.00 | 0.02 | 0.00 | 33 | 1010.8 |
| 20260509181525 | 82 | 279 | 3.0 | 7.0 | 0.00 | 0.02 | 0.00 | 32 | 1010.8 |
| 20260509180523 | 82 | 17 | 2.0 | 6.0 | 0.00 | 0.02 | 0.00 | 32 | 1010.9 |
| 20260509175521 | 82 | 284 | 4.0 | 8.0 | 0.00 | 0.02 | 0.00 | 32 | 1010.9 |
| 20260509174519 | 82 | 272 | 3.0 | 5.0 | 0.00 | 0.02 | 0.00 | 36 | 1011.1 |
| 20260509173517 | 81 | 337 | 3.0 | 6.0 | 0.00 | 0.02 | 0.00 | 35 | 1011.0 |
| 20260509172516 | 81 | 51 | 3.0 | 6.0 | 0.00 | 0.02 | 0.00 | 34 | 1011.1 |
| 20260509171534 | 81 | 291 | 1.0 | 5.0 | 0.00 | 0.02 | 0.00 | 40 | 1011.3 |
| 20260509170532 | 81 | 274 | 3.0 | 7.0 | 0.00 | 0.02 | 0.00 | 38 | 1011.4 |
| 20260509165530 | 80 | 12 | 3.0 | 6.0 | 0.00 | 0.02 | 0.00 | 37 | 1011.2 |
| 20260509164528 | 79 | 10 | 2.0 | 5.0 | 0.00 | 0.02 | 0.00 | 40 | 1011.2 |
| 20260509163526 | 79 | 9 | 3.0 | 6.0 | 0.00 | 0.02 | 0.00 | 38 | 1011.3 |
| 20260509162544 | 80 | 32 | 3.0 | 9.0 | 0.00 | 0.02 | 0.00 | 41 | 1011.2 |
| 20260509161523 | 79 | 11 | 3.0 | 7.0 | 0.00 | 0.02 | 0.00 | 41 | 1011.2 |
| 20260509160521 | 78 | 36 | 4.0 | 6.0 | 0.00 | 0.02 | 0.00 | 41 | 1011.2 |
| 20260509155519 | 78 | 44 | 3.0 | 8.0 | 0.00 | 0.02 | 0.00 | 42 | 1011.2 |
| 20260509154517 | 78 | 13 | 1.0 | 4.0 | 0.00 | 0.02 | 0.00 | 49 | 1011.2 |
| 20260509153515 | 77 | 283 | 1.0 | 4.0 | 0.00 | 0.02 | 0.00 | 52 | 1011.0 |
| 20260509152553 | 76 | 19 | 2.0 | 6.0 | 0.00 | 0.02 | 0.00 | 53 | 1011.0 |
| 20260509151532 | 74 | 35 | 3.0 | 7.0 | 0.00 | 0.02 | 0.00 | 55 | 1011.1 |
| 20260509150529 | 73 | 33 | 3.0 | 7.0 | 0.00 | 0.02 | 0.00 | 58 | 1011.2 |
| 20260509145528 | 72 | 256 | 1.0 | 4.0 | 0.00 | 0.02 | 0.00 | 62 | 1011.1 |
| 20260509144546 | 71 | 236 | 3.0 | 5.0 | 0.00 | 0.02 | 0.00 | 63 | 1011.1 |
| 20260509143524 | 71 | 7 | 2.0 | 5.0 | 0.00 | 0.02 | 0.00 | 66 | 1011.1 |
| 20260509142522 | 70 | 44 | 2.0 | 4.0 | 0.00 | 0.02 | 0.00 | 67 | 1011.0 |
| 20260509141520 | 70 | 74 | 1.0 | 3.0 | 0.00 | 0.02 | 0.00 | 70 | 1011.0 |
| 20260509140518 | 68 | 87 | 1.0 | 3.0 | 0.00 | 0.02 | 0.00 | 74 | 1010.9 |
| 20260509135517 | 66 | 34 | 0.0 | 2.0 | 0.00 | 0.02 | 0.00 | 81 | 1010.9 |
| 20260509134534 | 64 | 275 | 0.0 | 2.0 | 0.00 | 0.02 | 0.00 | 82 | 1010.9 |
| 20260509133533 | 63 | 230 | 1.0 | 2.0 | 0.00 | 0.02 | 0.00 | 84 | 1011.0 |